sat.trackr.live / text

‹ back to catalog

GSAT-N2 (GSAT-20)

NORAD 62028 · 2024-214A

PAYLOAD ACTIVE UNKNOWN

§ Identity

Operator
Country
IND
Launch date
2024-11-18
Launch site
AFETR
Launch vehicle
Mass (kg)
RCS (m²)

Purposes: comms

External: N2YO · Heavens-Above · Gunter

§ Orbital elements

Epoch: 2026-09-19T20:25:23.828736Z

Period
1,436.05 min
Inclination
0.0125°
Eccentricity
0.0001384
Mean motion
1.00275338 rev/d
Perigee alt
35,779.8 km
Apogee alt
35,791.4 km
Semi-major
42,163.7 km
B*
0.0000e+0
RAAN
125.4837°
Arg perigee
244.2032°
Mean anomaly
3.4642°
Rev number
684

§ Raw data

GSAT-N2 (GSAT-20)1 62028U 24214A   26262.85097024 -.00000025  00000+0  00000+0 0  99902 62028   0.0125 125.4837 0001384 244.2032   3.4642  1.00275338  6847

JSON: /api/v1/satellites/62028 · /tle

For live sub-satellite position, see the globe view (requires WebGL).

§ Visibility from observer

Set your observer location to see the next 7 days of passes ≥ 10°. The values pass through the URL so the page stays shareable.

No JS? Fill the form by hand. The geolocation button needs JavaScript.